Flag for U.S.A. Weather past 2 weeks in Honolulu, Hawaii, U.S.A.

Now
72 °F

Light rain. Broken clouds.


Feels Like: 73 °F
Forecast: 66 / 75 °F
Wind: 3 mph from Northeast

Location: Honolulu International Airport

Current Time: Mar 4, 2015 at 5:24:56 PM

Latest Report: Mar 4, 2015 at 4:53 PM


Visibility: 8 mi

Pressure: 29.95 "Hg

Humidity: 78%

Dew point: 65 °F

Location of HonoluluLocation

Historic Weather in Honolulu — Graph

°F

Honolulu temperature yesterday

Maximum temperature yesterday: 83 °F (at 11:53 AM)
Minimum temperature yesterday: 72 °F (at 3:53 AM)
Average temperature yesterday: 77 °F

Past Weeks' High & Low Weather Summary

 TemperatureHumidityPressure
High85 °F (Feb 23, 12:53 PM)97% (Feb 19, 10:53 PM)30.07 "Hg (Feb 19, 10:53 PM)
Low65 °F (Feb 21, 4:53 AM)48% (Mar 2, 1:53 PM)29.87 "Hg (Feb 19, 4:53 PM)
Average75 °F72%29.97 "Hg
* Reported Feb 17 3:53 PM — Mar 4 3:53 PM, Honolulu, Weather by CustomWeather, © 2015

Note: Actual official high and low records may vary slightly from our data, if they occured in-between our weather recording intervals... More about our weather records

Advertising

Honolulu weather history for previous 24 hours

 ConditionsComfort  
Time TempWeatherWind HumidityBarometerVisibility
3:53 PM
Wed, Mar 4
75 °FBroken clouds.12 mph66%29.95 "Hg10 mi
2:53 PM76 °FCloudy.13 mph62%29.97 "Hg10 mi
1:53 PM77 °FCloudy.9 mph60%29.98 "Hg10 mi
12:53 PM77 °FMore clouds than sun.13 mph60%29.99 "Hg10 mi
11:53 AM75 °FMore clouds than sun.10 mph66%30.01 "Hg10 mi
10:53 AM76 °FMore clouds than sun.12 mph64%30.03 "Hg10 mi
9:53 AM75 °FMore clouds than sun.7 mph66%30.03 "Hg10 mi
8:53 AM74 °FMore clouds than sun.9 mph69%30.02 "Hg10 mi
7:53 AM74 °FMore clouds than sun.10 mph67%30.00 "Hg10 mi
6:53 AM73 °FBroken clouds.12 mph69%29.98 "Hg10 mi
5:53 AM73 °FPartly cloudy.13 mph69%29.94 "Hg10 mi
4:53 AM73 °FPassing clouds.9 mph71%29.94 "Hg10 mi
3:53 AM73 °FPartly cloudy.8 mph71%29.97 "Hg10 mi
2:53 AM73 °FPassing clouds.7 mph71%29.98 "Hg10 mi
1:53 AM74 °FPassing clouds.8 mph69%30.00 "Hg10 mi
12:53 AM74 °FPartly cloudy.9 mph71%30.00 "Hg10 mi
11:53 PM
Tue, Mar 3
74 °FPartly cloudy.7 mph71%30.03 "Hg10 mi
10:53 PM74 °FPartly cloudy.5 mph71%30.03 "Hg10 mi
9:53 PM74 °FMostly cloudy.7 mph74%30.03 "Hg10 mi
8:53 PM74 °FMostly cloudy.6 mph74%30.02 "Hg10 mi
7:53 PM75 °FMostly cloudy.10 mph71%29.99 "Hg10 mi
6:53 PM75 °FMostly cloudy.13 mph71%29.98 "Hg10 mi
5:53 PM77 °FMore clouds than sun.12 mph69%29.96 "Hg10 mi
Weather by CustomWeather, © 2015

See weather overviewHow to use our weather pages